Regional Weather Roundup
Issued by NWS

Home | Current Version | Previous Version | Text Only | Print | Product List | Glossary On
Versions: 1 2 3 4 5 6 7 8 9 10 11 12 13 14 15 16 17 18 19 20 21 22 23 24 25 26 27 28 29 30 31 32 33 34 35 36 37 38 39 40 41 42 43 44 45 46 47 48 49
000
ASUS46 KSEW 300510
RWRWA

WASHINGTON REGIONAL WEATHER ROUNDUP
NATIONAL WEATHER SERVICE SEATTLE WA
1000 PM PDT MON SEP 29 2014

NOTE:"FAIR" INDICATES FEW OR NO CLOUDS BELOW 12,000 FEET WITH NO
SIGNIFICANT WEATHER AND/OR OBSTRUCTIONS TO VISIBILITY.

WAZ505-507>509-300600-
SEATTLE, TACOMA, EVERETT, AND VICINITY

CITY           SKY/WX    TMP DP  RH WIND       PRES   REMARKS
EVERETT        LGT RAIN  56  50  80 E5        29.96R
BOEING FIELD   CLOUDY    62  53  72 E6        29.95R
RENTON         CLOUDY    58  56  93 CALM      29.95R
SEATAC AIRPORT MOCLDY    58  52  80 S8        29.96R
JBLM-MCCHORD   PTCLDY    55  53  94 S10       29.96R
PUYALLUP       NOT AVBL
JBLM-FT LEWIS  CLEAR     56  52  87 S9        29.96R
TACOMA NARROWS CLOUDY    56  51  84 S7        29.95R
$$

WAZ001-503-506-510-514-515-300600-
NORTH INTERIOR

CITY           SKY/WX    TMP DP  RH WIND       PRES   REMARKS
BELLINGHAM     CLOUDY    58  51  78 S8        29.91R
FRIDAY HARBOR  PTCLDY    56  51  84 SW6       29.93R
EASTSOUND      CLEAR     54  50  87 S6        29.90R
PORT ANGELES   CLEAR     58  46  64 W14       29.95R
NAS WHIDBEY    PTCLDY    57  50  77 W15       29.94R
BURLINGTON     CLOUDY    57  54  88 CALM      29.94R
$$

WAZ020-022-039-040-504-511-512-300600-
SOUTHWEST INTERIOR

CITY           SKY/WX    TMP DP  RH WIND       PRES   REMARKS
SHELTON        CLEAR     54  51  90 SW16G24   29.93R
OLYMPIA        CLEAR     56  50  80 SW16      29.97R
CHEHALIS       MOCLDY    54  54 100 CALM      30.01R
KELSO          CLOUDY    57  52  82 CALM      30.06R
VANCOUVER      CLOUDY    58  52  80 NW8       30.03R
SCAPPOOSE, OR  CLOUDY    56  54  93 SW3       30.03R
PORTLAND, OR   MOCLDY    58  54  86 VRB6      30.04R
$$

WAZ021-516-517-300600-
WASHINGTON COAST

CITY           SKY/WX    TMP DP  RH WIND       PRES   REMARKS
FORKS          CLOUDY    54  53  97 CALM      29.99R FOG
HOQUIAM        MOCLDY    59  57  93 W7        30.01R
ASTORIA, OR    MOCLDY    57  55  93 SW5       30.03R
$$

WAZ019-023-024-040-518-519-300600-
CASCADE MOUNTAINS AND COLUMBIA GORGE

CITY           SKY/WX    TMP DP  RH WIND       PRES   REMARKS
STAMPEDE PASS  NOT AVBL
TROUTDALE, OR  CLOUDY    60  54  80 VRB3      30.03R
THE DALLES, OR PTCLDY    63  50  62 W23G32    29.91R
$$

WAZ026-027-041>044-520-521-300600-
EAST SLOPES

CITY           SKY/WX    TMP DP  RH WIND       PRES   REMARKS
OMAK           PTCLDY    57  40  52 NW7       29.71R
WENATCHEE      PTCLDY    64  47  53 NW12      29.79R
ELLENSBURG     PTCLDY    58  44  60 NW16      29.85R
YAKIMA         PTCLDY    64  45  49 W20G25    29.83R
$$

WAZ028-034-035-300600-
COLUMBIA BASIN

CITY           SKY/WX    TMP DP  RH WIND       PRES   REMARKS
EPHRATA        CLOUDY    65  47  52 SW7       29.75R
MOSES LAKE     CLOUDY    67  49  52 W14       29.76R
PASCO          CLOUDY    65  56  72 SW12      29.81R
HERMISTON, OR  LGT RAIN  64  52  64 SW18G25   29.85R
$$

WAZ036>038-300600-
NORTHEAST WASHINGTON

CITY           SKY/WX    TMP DP  RH WIND       PRES   REMARKS
SPOKANE GEIGER CLOUDY    64  44  48 S15       29.75F
SPOKANE FELTS  CLOUDY    65  45  48 S8        29.76S
FAIRCHILD AFB  CLOUDY    63  43  48 S13       29.77R
COEURDALENE,ID MOCLDY    57  48  72 S14       29.77S
DEER PARK      MOCLDY    60  44  55 SE9       29.75S
$$

WAZ029>033-300600-
SOUTHEAST WASHINGTON

CITY           SKY/WX    TMP DP  RH WIND       PRES   REMARKS
PULLMAN        CLOUDY    59  47  64 VRB5      29.85R
LEWISTON, ID   CLOUDY    62  53  72 E7        29.81R
WALLA WALLA    LGT RAIN  62  53  72 SW17G28   29.87R
PENDLETON, OR  CLOUDY    62  48  60 W23G30    29.86S
$$



USA.gov is the U.S. government's official web portal to all federal, state and local government web resources and services.